Time,TemperatureF,DewpointF,PressureIn,WindDirection,WindDirectionDegrees,WindSpeedMPH,WindSpeedGustMPH,Humidity,HourlyPrecipIn,Conditions,Clouds,dailyrainin,SoftwareType,DateUTC
2013-06-24 00:01:00,71.0,66.7,30.07,West,270,5.0,10.0,87,0.00,,,0.00,Rainwise IP-100,2013-06-24 04:01:00,
2013-06-24 00:06:00,72.0,66.7,30.05,SW,225,6.0,8.0,84,0.00,,,0.00,Rainwise IP-100,2013-06-24 04:06:00,
2013-06-24 00:11:00,72.0,67.0,30.05,NNW,337,3.0,10.0,85,0.00,,,0.00,Rainwise IP-100,2013-06-24 04:11:00,
2013-06-24 00:16:00,70.0,67.0,30.07,ESE,112,6.0,7.0,91,0.00,,,0.00,Rainwise IP-100,2013-06-24 04:16:00,
2013-06-24 00:21:00,70.0,67.0,30.07,WSW,247,7.0,10.0,90,0.00,,,0.00,Rainwise IP-100,2013-06-24 04:21:00,
2013-06-24 00:26:00,72.0,66.7,30.05,WSW,247,9.0,12.0,84,0.00,,,0.00,Rainwise IP-100,2013-06-24 04:26:00,
2013-06-24 00:31:00,73.0,67.0,30.05,SW,225,8.0,12.0,82,0.00,,,0.00,Rainwise IP-100,2013-06-24 04:31:00,
2013-06-24 00:36:00,73.0,67.0,30.05,WSW,247,6.0,13.0,82,0.00,,,0.00,Rainwise IP-100,2013-06-24 04:36:00,
2013-06-24 00:41:00,73.0,66.7,30.05,West,270,7.0,14.0,81,0.00,,,0.00,Rainwise IP-100,2013-06-24 04:41:00,
2013-06-24 00:46:00,73.0,66.7,30.05,West,270,6.0,16.0,81,0.00,,,0.00,Rainwise IP-100,2013-06-24 04:46:00,
2013-06-24 00:51:00,73.0,66.7,30.05,WSW,247,6.0,15.0,80,0.00,,,0.00,Rainwise IP-100,2013-06-24 04:51:00,
2013-06-24 00:56:00,73.0,66.7,30.05,SW,225,7.0,13.0,80,0.00,,,0.00,Rainwise IP-100,2013-06-24 04:56:00,
2013-06-24 01:01:00,73.0,66.3,30.05,SW,225,7.0,17.0,79,0.00,,,0.00,Rainwise IP-100,2013-06-24 05:01:00,
2013-06-24 01:06:00,73.0,66.0,30.05,WSW,247,4.0,16.0,78,0.00,,,0.00,Rainwise IP-100,2013-06-24 05:06:00,
2013-06-24 01:11:00,73.0,66.0,30.05,WSW,247,15.0,15.0,78,0.00,,,0.00,Rainwise IP-100,2013-06-24 05:11:00,
2013-06-24 01:16:00,73.0,66.0,30.05,WSW,247,4.0,17.0,78,0.00,,,0.00,Rainwise IP-100,2013-06-24 05:16:00,
2013-06-24 01:21:00,73.0,66.0,30.05,SW,225,9.0,16.0,78,0.00,,,0.00,Rainwise IP-100,2013-06-24 05:21:00,
2013-06-24 01:26:00,73.0,65.5,30.05,SW,225,7.0,16.0,77,0.00,,,0.00,Rainwise IP-100,2013-06-24 05:26:00,
2013-06-24 01:31:00,73.0,65.0,30.05,SSW,202,7.0,16.0,76,0.00,,,0.00,Rainwise IP-100,2013-06-24 05:31:00,
2013-06-24 01:36:00,73.0,65.0,30.05,SW,225,9.0,15.0,76,0.00,,,0.00,Rainwise IP-100,2013-06-24 05:36:00,
2013-06-24 01:41:00,73.0,65.0,30.05,SW,225,6.0,14.0,76,0.00,,,0.00,Rainwise IP-100,2013-06-24 05:41:00,
2013-06-24 01:46:00,74.0,65.5,30.04,South,180,6.0,16.0,74,0.00,,,0.00,Rainwise IP-100,2013-06-24 05:46:00,
2013-06-24 01:51:00,74.0,65.5,30.04,South,180,9.0,12.0,74,0.00,,,0.00,Rainwise IP-100,2013-06-24 05:51:00,
2013-06-24 01:56:00,74.0,66.0,30.03,South,180,12.0,14.0,75,0.00,,,0.00,Rainwise IP-100,2013-06-24 05:56:00,
2013-06-24 02:01:00,74.0,66.0,30.03,SSW,202,8.0,13.0,75,0.00,,,0.00,Rainwise IP-100,2013-06-24 06:01:00,
2013-06-24 02:06:00,73.0,65.0,30.03,South,180,7.0,13.0,76,0.00,,,0.00,Rainwise IP-100,2013-06-24 06:06:00,
2013-06-24 02:11:00,73.0,65.0,30.04,SSE,157,6.0,12.0,76,0.00,,,0.00,Rainwise IP-100,2013-06-24 06:11:00,
2013-06-24 02:16:00,73.0,65.5,30.04,SSW,202,9.0,11.0,77,0.00,,,0.00,Rainwise IP-100,2013-06-24 06:16:00,
2013-06-24 02:21:00,73.0,65.0,30.04,South,180,7.0,16.0,76,0.00,,,0.00,Rainwise IP-100,2013-06-24 06:21:00,
2013-06-24 02:26:00,73.0,65.5,30.04,South,180,7.0,13.0,77,0.00,,,0.00,Rainwise IP-100,2013-06-24 06:26:00,
2013-06-24 02:31:00,73.0,65.0,30.04,SSW,202,6.0,15.0,76,0.00,,,0.00,Rainwise IP-100,2013-06-24 06:31:00,
2013-06-24 02:36:00,72.0,65.0,30.04,SSW,202,11.0,18.0,79,0.00,,,0.00,Rainwise IP-100,2013-06-24 06:36:00,
2013-06-24 02:41:00,72.0,65.0,30.04,South,180,7.0,13.0,79,0.00,,,0.00,Rainwise IP-100,2013-06-24 06:41:00,
2013-06-24 02:46:00,72.0,65.0,30.05,SW,225,10.0,12.0,79,0.00,,,0.00,Rainwise IP-100,2013-06-24 06:46:00,
2013-06-24 02:51:00,72.0,65.0,30.05,South,180,10.0,13.0,79,0.00,,,0.00,Rainwise IP-100,2013-06-24 06:51:00,
2013-06-24 02:56:00,72.0,65.5,30.05,South,180,7.0,12.0,80,0.00,,,0.00,Rainwise IP-100,2013-06-24 06:56:00,
2013-06-24 03:01:00,72.0,65.5,30.04,SSE,157,7.0,12.0,80,0.00,,,0.00,Rainwise IP-100,2013-06-24 07:01:00,
2013-06-24 03:06:00,71.0,64.5,30.04,SSE,157,6.0,11.0,80,0.00,,,0.00,Rainwise IP-100,2013-06-24 07:06:00,
2013-06-24 03:11:00,71.0,65.0,30.04,SSE,157,10.0,12.0,81,0.00,,,0.00,Rainwise IP-100,2013-06-24 07:11:00,
2013-06-24 03:16:00,72.0,65.5,30.03,SSW,202,6.0,12.0,80,0.00,,,0.00,Rainwise IP-100,2013-06-24 07:16:00,
2013-06-24 03:21:00,71.0,65.0,30.03,SSW,202,8.0,12.0,81,0.00,,,0.00,Rainwise IP-100,2013-06-24 07:21:00,
2013-06-24 03:26:00,71.0,65.0,30.04,South,180,8.0,12.0,81,0.00,,,0.00,Rainwise IP-100,2013-06-24 07:26:00,
2013-06-24 03:31:00,71.0,65.0,30.04,South,180,3.0,10.0,82,0.00,,,0.00,Rainwise IP-100,2013-06-24 07:31:00,
2013-06-24 03:36:00,71.0,65.0,30.04,South,180,8.0,8.0,81,0.00,,,0.00,Rainwise IP-100,2013-06-24 07:36:00,
2013-06-24 03:41:00,71.0,65.0,30.04,SSW,202,6.0,12.0,82,0.00,,,0.00,Rainwise IP-100,2013-06-24 07:41:00,
2013-06-24 03:46:00,71.0,65.0,30.04,SSE,157,5.0,12.0,82,0.00,,,0.00,Rainwise IP-100,2013-06-24 07:46:00,
2013-06-24 03:51:00,71.0,65.0,30.04,SSE,157,7.0,15.0,81,0.00,,,0.00,Rainwise IP-100,2013-06-24 07:51:00,
2013-06-24 03:56:00,71.0,64.5,30.04,SE,135,6.0,10.0,80,0.00,,,0.00,Rainwise IP-100,2013-06-24 07:56:00,
2013-06-24 04:01:00,72.0,65.0,30.04,South,180,9.0,15.0,79,0.00,,,0.00,Rainwise IP-100,2013-06-24 08:01:00,
2013-06-24 04:06:00,71.0,65.0,30.04,SE,135,7.0,10.0,81,0.00,,,0.00,Rainwise IP-100,2013-06-24 08:06:00,
2013-06-24 04:11:00,71.0,65.0,30.04,South,180,6.0,10.0,82,0.00,,,0.00,Rainwise IP-100,2013-06-24 08:11:00,
2013-06-24 04:16:00,71.0,65.0,30.04,SSE,157,6.0,11.0,81,0.00,,,0.00,Rainwise IP-100,2013-06-24 08:16:00,
2013-06-24 04:21:00,71.0,64.0,30.04,SSE,157,7.0,11.0,79,0.00,,,0.00,Rainwise IP-100,2013-06-24 08:21:00,
2013-06-24 04:26:00,72.0,65.0,30.03,SW,225,9.0,11.0,79,0.00,,,0.00,Rainwise IP-100,2013-06-24 08:26:00,
2013-06-24 04:31:00,71.0,64.5,30.03,South,180,6.0,11.0,80,0.00,,,0.00,Rainwise IP-100,2013-06-24 08:31:00,
2013-06-24 04:36:00,72.0,65.5,30.03,SSW,202,8.0,15.0,80,0.00,,,0.00,Rainwise IP-100,2013-06-24 08:36:00,
2013-06-24 04:41:00,71.0,64.5,30.03,SW,225,7.0,13.0,80,0.00,,,0.00,Rainwise IP-100,2013-06-24 08:41:00,
2013-06-24 04:46:00,71.0,64.5,30.03,SW,225,11.0,16.0,80,0.00,,,0.00,Rainwise IP-100,2013-06-24 08:46:00,
2013-06-24 04:51:00,71.0,64.5,30.03,SSW,202,8.0,15.0,80,0.00,,,0.00,Rainwise IP-100,2013-06-24 08:51:00,
2013-06-24 04:56:00,71.0,64.5,30.03,SW,225,9.0,16.0,80,0.00,,,0.00,Rainwise IP-100,2013-06-24 08:56:00,
2013-06-24 05:01:00,71.0,64.5,30.03,South,180,7.0,16.0,80,0.00,,,0.00,Rainwise IP-100,2013-06-24 09:01:00,
2013-06-24 05:06:00,71.0,64.5,30.04,South,180,7.0,16.0,80,0.00,,,0.00,Rainwise IP-100,2013-06-24 09:06:00,
2013-06-24 05:11:00,71.0,65.0,30.04,SSW,202,7.0,11.0,81,0.00,,,0.00,Rainwise IP-100,2013-06-24 09:11:00,
2013-06-24 05:16:00,71.0,65.0,30.04,SW,225,7.0,12.0,81,0.00,,,0.00,Rainwise IP-100,2013-06-24 09:16:00,
2013-06-24 05:21:00,71.0,65.0,30.04,SSW,202,6.0,12.0,81,0.00,,,0.00,Rainwise IP-100,2013-06-24 09:21:00,
2013-06-24 05:26:00,71.0,64.5,30.04,SW,225,8.0,14.0,80,0.00,,,0.00,Rainwise IP-100,2013-06-24 09:26:00,
2013-06-24 05:31:00,71.0,65.0,30.04,SW,225,4.0,14.0,81,0.00,,,0.00,Rainwise IP-100,2013-06-24 09:31:00,
2013-06-24 05:36:00,71.0,64.5,30.04,South,180,9.0,11.0,80,0.00,,,0.00,Rainwise IP-100,2013-06-24 09:36:00,
2013-06-24 05:41:00,71.0,64.5,30.04,SSW,202,6.0,12.0,80,0.00,,,0.00,Rainwise IP-100,2013-06-24 09:41:00,
2013-06-24 05:46:00,71.0,65.0,30.04,SE,135,6.0,14.0,81,0.00,,,0.00,Rainwise IP-100,2013-06-24 09:46:00,
2013-06-24 05:51:00,71.0,65.0,30.04,WSW,247,6.0,11.0,81,0.00,,,0.00,Rainwise IP-100,2013-06-24 09:51:00,
2013-06-24 05:56:00,71.0,64.5,30.05,SSW,202,8.0,13.0,80,0.00,,,0.00,Rainwise IP-100,2013-06-24 09:56:00,
2013-06-24 06:01:00,71.0,65.0,30.05,South,180,9.0,11.0,81,0.00,,,0.00,Rainwise IP-100,2013-06-24 10:01:00,
2013-06-24 06:06:00,71.0,65.5,30.04,SSE,157,8.0,12.0,83,0.00,,,0.00,Rainwise IP-100,2013-06-24 10:06:00,
2013-06-24 06:11:00,71.0,65.5,30.04,SSE,157,9.0,10.0,83,0.00,,,0.00,Rainwise IP-100,2013-06-24 10:11:00,
2013-06-24 06:16:00,71.0,65.0,30.04,SSE,157,7.0,11.0,82,0.00,,,0.00,Rainwise IP-100,2013-06-24 10:16:00,
2013-06-24 06:21:00,71.0,64.5,30.04,SSE,157,9.0,12.0,80,0.00,,,0.00,Rainwise IP-100,2013-06-24 10:21:00,
2013-06-24 06:26:00,71.0,65.0,30.04,SSE,157,5.0,10.0,82,0.00,,,0.00,Rainwise IP-100,2013-06-24 10:26:00,
2013-06-24 06:31:00,71.0,65.0,30.04,ESE,112,5.0,9.0,82,0.00,,,0.00,Rainwise IP-100,2013-06-24 10:31:00,
2013-06-24 06:36:00,72.0,65.5,30.04,SSE,157,7.0,11.0,80,0.00,,,0.00,Rainwise IP-100,2013-06-24 10:36:00,
2013-06-24 06:41:00,72.0,66.0,30.04,South,180,3.0,10.0,81,0.00,,,0.00,Rainwise IP-100,2013-06-24 10:41:00,
2013-06-24 06:46:00,72.0,65.0,30.04,South,180,7.0,10.0,79,0.00,,,0.00,Rainwise IP-100,2013-06-24 10:46:00,
2013-06-24 06:51:00,72.0,65.5,30.04,South,180,7.0,12.0,80,0.00,,,0.00,Rainwise IP-100,2013-06-24 10:51:00,
2013-06-24 06:53:00,72.0,65.5,30.04,South,180,7.0,12.0,80,0.00,,,0.00,Rainwise IP-100,2013-06-24 10:53:00,
2013-06-24 06:58:00,73.0,64.0,30.04,South,180,4.0,17.0,73,0.00,,,0.00,Rainwise IP-100,2013-06-24 10:58:00,
2013-06-24 07:03:00,73.0,66.3,30.04,South,180,4.0,9.0,79,0.00,,,0.00,Rainwise IP-100,2013-06-24 11:03:00,
2013-06-24 07:08:00,73.0,66.7,30.05,South,180,3.0,6.0,80,0.00,,,0.00,Rainwise IP-100,2013-06-24 11:08:00,
2013-06-24 07:13:00,73.0,66.3,30.05,SE,135,6.0,7.0,79,0.00,,,0.00,Rainwise IP-100,2013-06-24 11:13:00,
2013-06-24 07:18:00,73.0,66.3,30.05,SE,135,5.0,7.0,79,0.00,,,0.00,Rainwise IP-100,2013-06-24 11:18:00,
2013-06-24 07:23:00,73.0,66.7,30.05,SE,135,7.0,9.0,80,0.00,,,0.00,Rainwise IP-100,2013-06-24 11:23:00,
2013-06-24 07:28:00,73.0,66.7,30.05,SE,135,6.0,9.0,80,0.00,,,0.00,Rainwise IP-100,2013-06-24 11:28:00,
2013-06-24 07:33:00,73.0,66.7,30.05,East,90,6.0,9.0,80,0.00,,,0.00,Rainwise IP-100,2013-06-24 11:33:00,
2013-06-24 07:38:00,73.0,66.3,30.05,South,180,5.0,7.0,79,0.00,,,0.00,Rainwise IP-100,2013-06-24 11:38:00,
2013-06-24 07:43:00,73.0,66.0,30.05,SE,135,5.0,8.0,78,0.00,,,0.00,Rainwise IP-100,2013-06-24 11:43:00,
2013-06-24 07:48:00,74.0,66.7,30.05,SW,225,2.0,6.0,78,0.00,,,0.00,Rainwise IP-100,2013-06-24 11:48:00,
2013-06-24 07:53:00,74.0,66.7,30.05,SSW,202,0.0,5.0,78,0.00,,,0.00,Rainwise IP-100,2013-06-24 11:53:00,
2013-06-24 07:58:00,75.0,66.0,30.05,SW,225,1.0,3.0,73,0.00,,,0.00,Rainwise IP-100,2013-06-24 11:58:00,
2013-06-24 08:03:00,76.0,66.3,30.05,SW,225,3.0,5.0,72,0.00,,,0.00,Rainwise IP-100,2013-06-24 12:03:00,
2013-06-24 08:08:00,76.0,66.0,30.05,SW,225,2.0,5.0,71,0.00,,,0.00,Rainwise IP-100,2013-06-24 12:08:00,
2013-06-24 08:13:00,76.0,66.0,30.05,South,180,5.0,6.0,71,0.00,,,0.00,Rainwise IP-100,2013-06-24 12:13:00,
2013-06-24 08:18:00,77.0,66.3,30.05,SSW,202,0.0,5.0,69,0.00,,,0.00,Rainwise IP-100,2013-06-24 12:18:00,
2013-06-24 08:23:00,78.0,66.3,30.05,SSW,202,0.0,2.0,67,0.00,,,0.00,Rainwise IP-100,2013-06-24 12:23:00,
2013-06-24 08:28:00,78.0,67.0,30.04,NW,315,2.0,7.0,69,0.00,,,0.00,Rainwise IP-100,2013-06-24 12:28:00,
2013-06-24 08:33:00,77.0,65.5,30.04,West,270,4.0,6.0,67,0.00,,,0.00,Rainwise IP-100,2013-06-24 12:33:00,
2013-06-24 08:38:00,76.0,66.3,30.06,NW,315,9.0,10.0,72,0.00,,,0.00,Rainwise IP-100,2013-06-24 12:38:00,
2013-06-24 08:43:00,77.0,65.5,30.06,NW,315,1.0,9.0,67,0.00,,,0.00,Rainwise IP-100,2013-06-24 12:43:00,
2013-06-24 08:48:00,77.0,65.0,30.06,SSW,202,0.0,7.0,66,0.00,,,0.00,Rainwise IP-100,2013-06-24 12:48:00,
2013-06-24 08:53:00,77.0,68.0,30.06,NW,315,2.0,9.0,73,0.00,,,0.00,Rainwise IP-100,2013-06-24 12:53:00,
2013-06-24 08:58:00,78.0,66.0,30.06,WNW,292,1.0,6.0,66,0.00,,,0.00,Rainwise IP-100,2013-06-24 12:58:00,
2013-06-24 09:03:00,78.0,65.0,30.06,NW,315,0.0,7.0,64,0.00,,,0.00,Rainwise IP-100,2013-06-24 13:03:00,
2013-06-24 09:08:00,78.0,66.3,30.05,NW,315,2.0,7.0,67,0.00,,,0.00,Rainwise IP-100,2013-06-24 13:08:00,
2013-06-24 09:13:00,77.0,66.3,30.05,NW,315,8.0,9.0,69,0.00,,,0.00,Rainwise IP-100,2013-06-24 13:13:00,
2013-06-24 09:18:00,78.0,66.0,30.05,North,360,5.0,9.0,66,0.00,,,0.00,Rainwise IP-100,2013-06-24 13:18:00,
2013-06-24 09:23:00,78.0,66.7,30.05,WNW,292,6.0,6.0,68,0.00,,,0.00,Rainwise IP-100,2013-06-24 13:23:00,
2013-06-24 09:28:00,78.0,66.7,30.05,NNW,337,5.0,7.0,68,0.00,,,0.00,Rainwise IP-100,2013-06-24 13:28:00,
2013-06-24 09:33:00,77.0,65.5,30.05,NW,315,6.0,8.0,67,0.00,,,0.00,Rainwise IP-100,2013-06-24 13:33:00,
2013-06-24 09:38:00,77.0,64.5,30.05,West,270,3.0,9.0,65,0.00,,,0.00,Rainwise IP-100,2013-06-24 13:38:00,
2013-06-24 09:43:00,77.0,64.5,30.05,West,270,7.0,10.0,65,0.00,,,0.00,Rainwise IP-100,2013-06-24 13:43:00,
2013-06-24 09:48:00,78.0,66.7,30.05,West,270,4.0,9.0,68,0.00,,,0.00,Rainwise IP-100,2013-06-24 13:48:00,
2013-06-24 09:53:00,78.0,65.5,30.05,NW,315,5.0,10.0,65,0.00,,,0.00,Rainwise IP-100,2013-06-24 13:53:00,
2013-06-24 09:54:00,78.0,65.5,30.05,NW,315,6.0,10.0,65,0.00,,,0.00,Rainwise IP-100,2013-06-24 13:54:00,
2013-06-24 09:59:00,78.0,66.0,30.05,NW,315,3.0,11.0,66,0.00,,,0.00,Rainwise IP-100,2013-06-24 13:59:00,
2013-06-24 10:04:00,78.0,64.5,30.05,NNW,337,5.0,12.0,63,0.00,,,0.00,Rainwise IP-100,2013-06-24 14:04:00,
2013-06-24 10:09:00,78.0,65.0,30.05,NW,315,4.0,10.0,64,0.00,,,0.00,Rainwise IP-100,2013-06-24 14:09:00,
2013-06-24 10:14:00,79.0,64.5,30.05,NNW,337,6.0,10.0,61,0.00,,,0.00,Rainwise IP-100,2013-06-24 14:14:00,
2013-06-24 10:19:00,79.0,66.0,30.04,NW,315,7.0,10.0,64,0.00,,,0.00,Rainwise IP-100,2013-06-24 14:19:00,
2013-06-24 10:24:00,79.0,65.0,30.04,NNW,337,7.0,13.0,62,0.00,,,0.00,Rainwise IP-100,2013-06-24 14:24:00,
2013-06-24 10:29:00,79.0,65.5,30.04,West,270,8.0,10.0,63,0.00,,,0.00,Rainwise IP-100,2013-06-24 14:29:00,
2013-06-24 10:34:00,79.0,64.0,30.04,North,360,10.0,13.0,60,0.00,,,0.00,Rainwise IP-100,2013-06-24 14:34:00,
2013-06-24 10:39:00,79.0,64.0,30.04,WNW,292,6.0,14.0,60,0.00,,,0.00,Rainwise IP-100,2013-06-24 14:39:00,
2013-06-24 10:44:00,79.0,64.0,30.04,WSW,247,4.0,11.0,60,0.00,,,0.00,Rainwise IP-100,2013-06-24 14:44:00,
2013-06-24 10:49:00,80.0,65.5,30.03,NW,315,12.0,12.0,61,0.00,,,0.00,Rainwise IP-100,2013-06-24 14:49:00,
2013-06-24 10:54:00,79.0,64.0,30.03,SW,225,4.0,16.0,60,0.00,,,0.00,Rainwise IP-100,2013-06-24 14:54:00,
2013-06-24 10:59:00,79.0,63.0,30.03,NW,315,6.0,12.0,58,0.00,,,0.00,Rainwise IP-100,2013-06-24 14:59:00,
2013-06-24 11:04:00,80.0,66.3,30.03,NW,315,6.0,14.0,63,0.00,,,0.00,Rainwise IP-100,2013-06-24 15:04:00,
2013-06-24 11:09:00,80.0,64.0,30.03,NW,315,11.0,18.0,58,0.00,,,0.00,Rainwise IP-100,2013-06-24 15:09:00,
2013-06-24 11:14:00,79.0,63.0,30.03,NW,315,7.0,15.0,58,0.00,,,0.00,Rainwise IP-100,2013-06-24 15:14:00,
2013-06-24 11:19:00,80.0,65.0,30.03,SW,225,10.0,15.0,60,0.00,,,0.00,Rainwise IP-100,2013-06-24 15:19:00,
2013-06-24 11:24:00,80.0,62.5,30.03,NW,315,10.0,13.0,55,0.00,,,0.00,Rainwise IP-100,2013-06-24 15:24:00,
2013-06-24 11:29:00,80.0,63.5,30.03,NW,315,9.0,13.0,57,0.00,,,0.00,Rainwise IP-100,2013-06-24 15:29:00,
2013-06-24 11:34:00,81.0,63.5,30.03,NNW,337,3.0,12.0,55,0.00,,,0.00,Rainwise IP-100,2013-06-24 15:34:00,
2013-06-24 11:39:00,81.0,66.3,30.02,NW,315,7.0,12.0,61,0.00,,,0.00,Rainwise IP-100,2013-06-24 15:39:00,
2013-06-24 11:44:00,81.0,65.0,30.02,NNW,337,9.0,13.0,58,0.00,,,0.00,Rainwise IP-100,2013-06-24 15:44:00,
2013-06-24 11:49:00,81.0,64.0,30.02,NNW,337,6.0,9.0,56,0.00,,,0.00,Rainwise IP-100,2013-06-24 15:49:00,
2013-06-24 11:54:00,82.0,65.0,30.02,North,360,1.0,9.0,56,0.00,,,0.00,Rainwise IP-100,2013-06-24 15:54:00,
2013-06-24 11:59:00,82.0,65.0,30.02,NW,315,6.0,15.0,56,0.00,,,0.00,Rainwise IP-100,2013-06-24 15:59:00,
2013-06-24 12:04:00,82.0,65.0,30.02,West,270,7.0,10.0,56,0.00,,,0.00,Rainwise IP-100,2013-06-24 16:04:00,
2013-06-24 12:09:00,82.0,66.0,30.02,NW,315,9.0,14.0,58,0.00,,,0.00,Rainwise IP-100,2013-06-24 16:09:00,
2013-06-24 12:14:00,82.0,65.0,30.02,North,360,7.0,13.0,56,0.00,,,0.00,Rainwise IP-100,2013-06-24 16:14:00,
2013-06-24 12:19:00,82.0,66.0,30.02,West,270,6.0,12.0,58,0.00,,,0.00,Rainwise IP-100,2013-06-24 16:19:00,
2013-06-24 12:24:00,82.0,65.0,30.02,NW,315,5.0,13.0,56,0.00,,,0.00,Rainwise IP-100,2013-06-24 16:24:00,
2013-06-24 12:29:00,82.0,64.5,30.02,NW,315,10.0,13.0,55,0.00,,,0.00,Rainwise IP-100,2013-06-24 16:29:00,
2013-06-24 12:34:00,82.0,65.0,30.02,NW,315,7.0,14.0,56,0.00,,,0.00,Rainwise IP-100,2013-06-24 16:34:00,
2013-06-24 12:39:00,82.0,66.0,30.01,NNW,337,15.0,15.0,58,0.00,,,0.00,Rainwise IP-100,2013-06-24 16:39:00,
2013-06-24 12:44:00,82.0,66.0,30.01,West,270,7.0,15.0,58,0.00,,,0.00,Rainwise IP-100,2013-06-24 16:44:00,
2013-06-24 12:49:00,82.0,65.0,30.01,NNW,337,10.0,11.0,56,0.00,,,0.00,Rainwise IP-100,2013-06-24 16:49:00,
2013-06-24 12:54:00,82.0,66.0,30.01,NW,315,7.0,15.0,58,0.00,,,0.00,Rainwise IP-100,2013-06-24 16:54:00,
2013-06-24 12:59:00,83.0,67.0,30.01,NW,315,3.0,10.0,59,0.00,,,0.00,Rainwise IP-100,2013-06-24 16:59:00,
2013-06-24 13:04:00,83.0,66.0,30.01,WSW,247,6.0,11.0,56,0.00,,,0.00,Rainwise IP-100,2013-06-24 17:04:00,
2013-06-24 13:09:00,84.0,67.0,30.00,West,270,9.0,10.0,57,0.00,,,0.00,Rainwise IP-100,2013-06-24 17:09:00,
2013-06-24 13:14:00,83.0,66.7,30.00,West,270,6.0,14.0,58,0.00,,,0.00,Rainwise IP-100,2013-06-24 17:14:00,
2013-06-24 13:19:00,83.0,67.0,30.01,WNW,292,9.0,14.0,59,0.00,,,0.00,Rainwise IP-100,2013-06-24 17:19:00,
2013-06-24 13:24:00,82.0,66.7,30.01,WNW,292,7.0,12.0,60,0.00,,,0.00,Rainwise IP-100,2013-06-24 17:24:00,
2013-06-24 13:29:00,83.0,67.5,30.01,West,270,1.0,12.0,60,0.00,,,0.00,Rainwise IP-100,2013-06-24 17:29:00,
2013-06-24 13:34:00,83.0,66.3,30.01,NW,315,9.0,9.0,57,0.00,,,0.00,Rainwise IP-100,2013-06-24 17:34:00,
2013-06-24 13:39:00,84.0,67.5,30.00,SW,225,5.0,10.0,58,0.00,,,0.00,Rainwise IP-100,2013-06-24 17:39:00,
2013-06-24 13:44:00,83.0,66.0,30.00,NNW,337,8.0,9.0,56,0.00,,,0.00,Rainwise IP-100,2013-06-24 17:44:00,
2013-06-24 13:49:00,83.0,66.7,29.99,West,270,7.0,10.0,58,0.00,,,0.00,Rainwise IP-100,2013-06-24 17:49:00,
2013-06-24 13:54:00,83.0,67.0,29.99,WNW,292,7.0,15.0,59,0.00,,,0.00,Rainwise IP-100,2013-06-24 17:54:00,
2013-06-24 13:59:00,83.0,67.5,30.00,West,270,3.0,12.0,60,0.00,,,0.00,Rainwise IP-100,2013-06-24 17:59:00,
2013-06-24 14:04:00,83.0,66.7,30.00,South,180,6.0,10.0,58,0.00,,,0.00,Rainwise IP-100,2013-06-24 18:04:00,
2013-06-24 14:09:00,83.0,66.7,29.98,NW,315,6.0,13.0,58,0.00,,,0.00,Rainwise IP-100,2013-06-24 18:09:00,
2013-06-24 14:14:00,83.0,69.0,29.98,WSW,247,1.0,10.0,62,0.00,,,0.00,Rainwise IP-100,2013-06-24 18:14:00,
2013-06-24 14:19:00,82.0,67.0,29.99,West,270,6.0,7.0,61,0.00,,,0.00,Rainwise IP-100,2013-06-24 18:19:00,
2013-06-24 14:24:00,81.0,67.5,29.99,West,270,2.0,6.0,64,0.00,,,0.00,Rainwise IP-100,2013-06-24 18:24:00,
2013-06-24 14:29:00,81.0,69.3,29.98,SW,225,9.0,10.0,67,0.00,,,0.00,Rainwise IP-100,2013-06-24 18:29:00,
2013-06-24 14:34:00,80.0,68.0,29.98,SSW,202,6.0,13.0,67,0.00,,,0.00,Rainwise IP-100,2013-06-24 18:34:00,
2013-06-24 14:39:00,78.0,67.0,30.01,SW,225,9.0,18.0,69,0.00,,,0.00,Rainwise IP-100,2013-06-24 18:39:00,
2013-06-24 14:44:00,76.0,66.7,30.01,SW,225,9.0,19.0,73,0.00,,,0.00,Rainwise IP-100,2013-06-24 18:44:00,
2013-06-24 14:49:00,74.0,66.3,30.03,WSW,247,6.0,16.0,77,0.00,,,0.00,Rainwise IP-100,2013-06-24 18:49:00,
2013-06-24 15:24:00,71.0,67.5,30.06,South,180,7.0,13.0,89,0.00,,,0.00,Rainwise IP-100,2013-06-24 19:24:00,
2013-06-24 15:30:00,71.0,67.0,30.05,SSE,157,10.0,13.0,88,0.00,,,0.00,Rainwise IP-100,2013-06-24 19:30:00,
2013-06-24 15:35:00,72.0,68.0,30.05,South,180,8.0,11.0,87,0.00,,,0.00,Rainwise IP-100,2013-06-24 19:35:00,
2013-06-24 15:40:00,71.0,67.5,30.03,South,180,11.0,11.0,89,0.00,,,0.00,Rainwise IP-100,2013-06-24 19:40:00,
2013-06-24 15:45:00,71.0,67.5,30.03,South,180,10.0,14.0,90,0.00,,,0.00,Rainwise IP-100,2013-06-24 19:45:00,
2013-06-24 15:50:00,71.0,68.0,30.03,South,180,10.0,13.0,91,0.00,,,0.00,Rainwise IP-100,2013-06-24 19:50:00,
2013-06-24 15:55:00,71.0,68.0,30.03,South,180,8.0,13.0,91,0.00,,,0.00,Rainwise IP-100,2013-06-24 19:55:00,
2013-06-24 16:00:00,71.0,68.0,30.02,South,180,9.0,11.0,91,0.00,,,0.00,Rainwise IP-100,2013-06-24 20:00:00,
2013-06-24 16:05:00,72.0,69.0,30.02,SW,225,4.0,10.0,90,0.00,,,0.00,Rainwise IP-100,2013-06-24 20:05:00,
2013-06-24 16:10:00,72.0,69.0,30.01,South,180,7.0,8.0,90,0.00,,,0.00,Rainwise IP-100,2013-06-24 20:10:00,
2013-06-24 16:15:00,72.0,69.3,30.01,SSE,157,9.0,10.0,91,0.00,,,0.00,Rainwise IP-100,2013-06-24 20:15:00,
2013-06-24 16:20:00,72.0,69.7,30.00,South,180,7.0,10.0,92,0.00,,,0.00,Rainwise IP-100,2013-06-24 20:20:00,
2013-06-24 16:25:00,72.0,69.3,30.00,SSW,202,7.0,12.0,91,0.00,,,0.00,Rainwise IP-100,2013-06-24 20:25:00,
2013-06-24 16:30:00,72.0,68.5,30.00,South,180,10.0,13.0,89,0.00,,,0.00,Rainwise IP-100,2013-06-24 20:30:00,
2013-06-24 16:35:00,73.0,69.7,30.00,SSE,157,10.0,12.0,89,0.00,,,0.00,Rainwise IP-100,2013-06-24 20:35:00,
2013-06-24 16:40:00,73.0,69.7,29.99,SSE,157,0.0,12.0,89,0.00,,,0.00,Rainwise IP-100,2013-06-24 20:40:00,
2013-06-24 16:45:00,74.0,70.0,29.99,West,270,1.0,5.0,87,0.00,,,0.00,Rainwise IP-100,2013-06-24 20:45:00,
2013-06-24 16:50:00,74.0,69.3,29.99,SE,135,5.0,6.0,85,0.00,,,0.00,Rainwise IP-100,2013-06-24 20:50:00,
2013-06-24 16:55:00,75.0,70.0,29.99,SW,225,6.0,7.0,84,0.00,,,0.00,Rainwise IP-100,2013-06-24 20:55:00,
2013-06-24 17:00:00,75.0,69.7,29.99,South,180,1.0,7.0,83,0.00,,,0.00,Rainwise IP-100,2013-06-24 21:00:00,
2013-06-24 17:05:00,76.0,71.0,29.99,SSW,202,3.0,5.0,84,0.00,,,0.00,Rainwise IP-100,2013-06-24 21:05:00,
2013-06-24 17:10:00,76.0,70.5,29.98,SW,225,5.0,11.0,83,0.00,,,0.00,Rainwise IP-100,2013-06-24 21:10:00,
2013-06-24 17:15:00,76.0,70.5,29.98,SW,225,6.0,7.0,83,0.00,,,0.00,Rainwise IP-100,2013-06-24 21:15:00,
2013-06-24 17:20:00,76.0,70.5,29.98,SW,225,4.0,10.0,83,0.00,,,0.00,Rainwise IP-100,2013-06-24 21:20:00,
2013-06-24 17:25:00,76.0,70.5,29.98,SW,225,4.0,10.0,83,0.00,,,0.00,Rainwise IP-100,2013-06-24 21:25:00,
2013-06-24 17:30:00,76.0,71.3,29.98,SW,225,7.0,10.0,85,0.00,,,0.00,Rainwise IP-100,2013-06-24 21:30:00,
2013-06-24 17:35:00,75.0,71.0,29.98,South,180,8.0,9.0,86,0.00,,,0.00,Rainwise IP-100,2013-06-24 21:35:00,
2013-06-24 17:40:00,75.0,71.0,29.98,South,180,7.0,12.0,86,0.00,,,0.00,Rainwise IP-100,2013-06-24 21:40:00,
2013-06-24 17:45:00,75.0,71.3,29.98,SW,225,6.0,9.0,87,0.00,,,0.00,Rainwise IP-100,2013-06-24 21:45:00,
2013-06-24 17:50:00,75.0,70.5,29.98,SSW,202,7.0,8.0,85,0.00,,,0.00,Rainwise IP-100,2013-06-24 21:50:00,
2013-06-24 17:55:00,75.0,70.5,29.98,SW,225,6.0,9.0,85,0.00,,,0.00,Rainwise IP-100,2013-06-24 21:55:00,
2013-06-24 18:00:00,76.0,72.0,29.97,SSE,157,6.0,9.0,88,0.00,,,0.00,Rainwise IP-100,2013-06-24 22:00:00,
2013-06-24 18:05:00,76.0,71.3,29.97,SW,225,7.0,10.0,86,0.00,,,0.00,Rainwise IP-100,2013-06-24 22:05:00,
2013-06-24 18:10:00,76.0,71.3,29.96,SSW,202,6.0,9.0,86,0.00,,,0.00,Rainwise IP-100,2013-06-24 22:10:00,
2013-06-24 18:15:00,76.0,71.3,29.96,SSW,202,6.0,9.0,85,0.00,,,0.00,Rainwise IP-100,2013-06-24 22:15:00,
2013-06-24 18:20:00,77.0,70.5,29.96,SSW,202,6.0,10.0,80,0.00,,,0.00,Rainwise IP-100,2013-06-24 22:20:00,
2013-06-24 18:25:00,78.0,70.5,29.96,SW,225,7.0,12.0,77,0.00,,,0.00,Rainwise IP-100,2013-06-24 22:25:00,
2013-06-24 18:30:00,78.0,69.7,29.95,SW,225,9.0,13.0,75,0.00,,,0.00,Rainwise IP-100,2013-06-24 22:30:00,
2013-06-24 18:35:00,78.0,69.3,29.95,SW,225,9.0,13.0,74,0.00,,,0.00,Rainwise IP-100,2013-06-24 22:35:00,
2013-06-24 18:40:00,78.0,69.0,29.95,SW,225,9.0,15.0,73,0.00,,,0.00,Rainwise IP-100,2013-06-24 22:40:00,
2013-06-24 18:45:00,78.0,69.0,29.95,SW,225,12.0,13.0,73,0.00,,,0.00,Rainwise IP-100,2013-06-24 22:45:00,
2013-06-24 18:50:00,78.0,69.0,29.95,SW,225,7.0,13.0,73,0.00,,,0.00,Rainwise IP-100,2013-06-24 22:50:00,
2013-06-24 18:55:00,78.0,69.0,29.95,SW,225,7.0,14.0,73,0.00,,,0.00,Rainwise IP-100,2013-06-24 22:55:00,
2013-06-24 19:00:00,78.0,69.0,29.96,SW,225,11.0,19.0,73,0.00,,,0.00,Rainwise IP-100,2013-06-24 23:00:00,
2013-06-24 19:05:00,78.0,69.3,29.96,SW,225,13.0,16.0,74,0.00,,,0.00,Rainwise IP-100,2013-06-24 23:05:00,
2013-06-24 19:10:00,78.0,69.7,29.96,WSW,247,2.0,15.0,75,0.00,,,0.00,Rainwise IP-100,2013-06-24 23:10:00,
2013-06-24 19:15:00,78.0,69.7,29.96,SW,225,6.0,14.0,75,0.00,,,0.00,Rainwise IP-100,2013-06-24 23:15:00,
2013-06-24 19:20:00,78.0,70.0,29.95,SW,225,9.0,13.0,76,0.00,,,0.00,Rainwise IP-100,2013-06-24 23:20:00,
2013-06-24 19:25:00,77.0,69.0,29.95,SW,225,7.0,17.0,75,0.00,,,0.00,Rainwise IP-100,2013-06-24 23:25:00,
2013-06-24 19:30:00,77.0,69.0,29.95,SW,225,7.0,17.0,75,0.00,,,0.00,Rainwise IP-100,2013-06-24 23:30:00,
2013-06-24 19:35:00,77.0,69.0,29.95,WSW,247,7.0,15.0,75,0.00,,,0.00,Rainwise IP-100,2013-06-24 23:35:00,
2013-06-24 19:40:00,77.0,69.0,29.96,SSW,202,10.0,13.0,76,0.00,,,0.00,Rainwise IP-100,2013-06-24 23:40:00,
2013-06-24 19:45:00,77.0,69.0,29.96,SSW,202,11.0,15.0,76,0.00,,,0.00,Rainwise IP-100,2013-06-24 23:45:00,
2013-06-24 19:50:00,76.0,68.0,29.97,SW,225,10.0,16.0,77,0.00,,,0.00,Rainwise IP-100,2013-06-24 23:50:00,
2013-06-24 19:55:00,76.0,68.0,29.97,SW,225,9.0,16.0,77,0.00,,,0.00,Rainwise IP-100,2013-06-24 23:55:00,
2013-06-24 20:00:00,76.0,67.5,29.98,SW,225,6.0,14.0,76,0.00,,,0.00,Rainwise IP-100,2013-06-25 00:00:00,
2013-06-24 20:05:00,76.0,67.5,29.98,SW,225,10.0,14.0,76,0.00,,,0.00,Rainwise IP-100,2013-06-25 00:05:00,
2013-06-24 20:10:00,76.0,67.5,29.98,SSW,202,8.0,13.0,76,0.00,,,0.00,Rainwise IP-100,2013-06-25 00:10:00,
2013-06-24 20:15:00,76.0,67.5,29.98,South,180,10.0,15.0,76,0.00,,,0.00,Rainwise IP-100,2013-06-25 00:15:00,
2013-06-24 20:20:00,76.0,68.0,29.99,SSW,202,9.0,15.0,77,0.00,,,0.00,Rainwise IP-100,2013-06-25 00:20:00,
2013-06-24 20:25:00,75.0,67.0,29.99,SW,225,8.0,13.0,76,0.00,,,0.00,Rainwise IP-100,2013-06-25 00:25:00,
2013-06-24 20:30:00,75.0,66.7,29.99,South,180,6.0,15.0,75,0.00,,,0.00,Rainwise IP-100,2013-06-25 00:30:00,
2013-06-24 20:35:00,75.0,67.0,29.99,South,180,9.0,15.0,76,0.00,,,0.00,Rainwise IP-100,2013-06-25 00:35:00,
2013-06-24 20:40:00,75.0,67.0,29.99,SW,225,10.0,13.0,76,0.00,,,0.00,Rainwise IP-100,2013-06-25 00:40:00,
2013-06-24 20:45:00,75.0,67.0,29.99,SW,225,9.0,13.0,76,0.00,,,0.00,Rainwise IP-100,2013-06-25 00:45:00,
2013-06-24 20:50:00,75.0,67.5,29.99,SW,225,5.0,12.0,77,0.00,,,0.00,Rainwise IP-100,2013-06-25 00:50:00,
2013-06-24 20:55:00,74.0,66.3,29.99,SW,225,9.0,10.0,76,0.00,,,0.00,Rainwise IP-100,2013-06-25 00:55:00,
2013-06-24 21:00:00,74.0,66.3,29.98,SW,225,7.0,11.0,76,0.00,,,0.00,Rainwise IP-100,2013-06-25 01:00:00,
2013-06-24 21:05:00,75.0,66.7,29.98,South,180,7.0,13.0,75,0.00,,,0.00,Rainwise IP-100,2013-06-25 01:05:00,
2013-06-24 21:10:00,75.0,66.7,29.99,WSW,247,9.0,14.0,75,0.00,,,0.00,Rainwise IP-100,2013-06-25 01:10:00,
2013-06-24 21:15:00,74.0,66.0,29.99,West,270,9.0,12.0,75,0.00,,,0.00,Rainwise IP-100,2013-06-25 01:15:00,
2013-06-24 21:20:00,74.0,66.3,30.01,ENE,67,3.0,10.0,76,0.00,,,0.00,Rainwise IP-100,2013-06-25 01:20:00,
2013-06-24 21:25:00,74.0,68.0,30.01,East,90,4.0,13.0,81,0.00,,,0.00,Rainwise IP-100,2013-06-25 01:25:00,
2013-06-24 21:30:00,73.0,66.3,30.03,NNW,337,0.0,9.0,79,0.00,,,0.00,Rainwise IP-100,2013-06-25 01:30:00,
2013-06-24 21:35:00,72.0,65.0,30.03,NW,315,6.0,13.0,78,0.00,,,0.00,Rainwise IP-100,2013-06-25 01:35:00,
2013-06-24 21:40:00,71.0,62.5,30.06,NNW,337,15.0,22.0,75,0.00,,,0.00,Rainwise IP-100,2013-06-25 01:40:00,
2013-06-24 21:45:00,70.0,64.5,30.06,NNW,337,3.0,19.0,83,0.00,,,0.00,Rainwise IP-100,2013-06-25 01:45:00,
2013-06-24 21:50:00,69.0,64.5,30.09,North,360,3.0,9.0,86,0.00,,,0.00,Rainwise IP-100,2013-06-25 01:50:00,
2013-06-24 21:55:00,67.0,64.5,30.09,ENE,67,1.0,8.0,91,0.12,,,0.02,Rainwise IP-100,2013-06-25 01:55:00,
2013-06-24 22:00:00,67.0,65.5,30.10,East,90,0.0,7.0,94,0.18,,,0.03,Rainwise IP-100,2013-06-25 02:00:00,
2013-06-24 22:05:00,66.0,64.0,30.10,South,180,2.0,6.0,94,0.12,,,0.04,Rainwise IP-100,2013-06-25 02:05:00,
2013-06-24 22:10:00,65.0,64.0,30.11,South,180,5.0,7.0,97,0.18,,,0.07,Rainwise IP-100,2013-06-25 02:10:00,
2013-06-24 22:15:00,65.0,64.0,30.11,West,270,4.0,6.0,97,0.24,,,0.09,Rainwise IP-100,2013-06-25 02:15:00,
2013-06-24 22:20:00,65.0,64.5,30.11,SW,225,5.0,8.0,98,0.24,,,0.10,Rainwise IP-100,2013-06-25 02:20:00,
2013-06-24 22:25:00,65.0,64.5,30.11,SW,225,4.0,7.0,99,0.18,,,0.12,Rainwise IP-100,2013-06-25 02:25:00,
2013-06-24 22:30:00,65.0,64.5,30.09,SSE,157,6.0,6.0,99,0.24,,,0.15,Rainwise IP-100,2013-06-25 02:30:00,
2013-06-24 22:35:00,65.0,64.5,30.09,SSE,157,6.0,7.0,99,0.30,,,0.16,Rainwise IP-100,2013-06-25 02:35:00,
2013-06-24 22:40:00,65.0,64.5,30.08,South,180,4.0,7.0,99,0.12,,,0.17,Rainwise IP-100,2013-06-25 02:40:00,
2013-06-24 22:45:00,65.0,64.5,30.08,SE,135,2.0,9.0,99,0.06,,,0.17,Rainwise IP-100,2013-06-25 02:45:00,
2013-06-24 22:50:00,65.0,64.5,30.07,SW,225,4.0,8.0,99,0.06,,,0.17,Rainwise IP-100,2013-06-25 02:50:00,
2013-06-24 22:55:00,65.0,64.5,30.07,SSW,202,7.0,7.0,99,0.00,,,0.17,Rainwise IP-100,2013-06-25 02:55:00,
2013-06-24 23:00:00,65.0,64.5,30.05,SW,225,7.0,9.0,99,0.00,,,0.17,Rainwise IP-100,2013-06-25 03:00:00,
2013-06-24 23:05:00,65.0,64.5,30.05,SW,225,6.0,8.0,99,0.00,,,0.17,Rainwise IP-100,2013-06-25 03:05:00,
2013-06-24 23:10:00,64.0,63.5,30.05,WSW,247,5.0,9.0,98,0.00,,,0.17,Rainwise IP-100,2013-06-25 03:10:00,
2013-06-24 23:15:00,64.0,63.5,30.05,SW,225,7.0,7.0,98,0.00,,,0.17,Rainwise IP-100,2013-06-25 03:15:00,
2013-06-24 23:20:00,64.0,63.5,30.05,South,180,8.0,9.0,98,0.00,,,0.17,Rainwise IP-100,2013-06-25 03:20:00,
2013-06-24 23:25:00,65.0,64.5,30.05,SW,225,6.0,12.0,99,0.00,,,0.17,Rainwise IP-100,2013-06-25 03:25:00,
2013-06-24 23:30:00,64.0,63.5,30.04,West,270,2.0,7.0,98,0.00,,,0.17,Rainwise IP-100,2013-06-25 03:30:00,
2013-06-24 23:35:00,64.0,63.5,30.04,WSW,247,3.0,5.0,98,0.00,,,0.17,Rainwise IP-100,2013-06-25 03:35:00,
2013-06-24 23:40:00,64.0,63.5,30.04,SW,225,0.0,6.0,98,0.00,,,0.17,Rainwise IP-100,2013-06-25 03:40:00,
2013-06-24 23:45:00,64.0,63.5,30.04,West,270,1.0,4.0,98,0.00,,,0.17,Rainwise IP-100,2013-06-25 03:45:00,
2013-06-24 23:50:00,64.0,63.5,30.03,SSW,202,6.0,6.0,98,0.00,,,0.17,Rainwise IP-100,2013-06-25 03:50:00,
2013-06-24 23:55:00,64.0,63.5,30.03,SW,225,6.0,7.0,98,0.00,,,0.17,Rainwise IP-100,2013-06-25 03:55:00,